Location: Basses Si�yes
(44.0835°N, 6.2037°E)
Time: 04:38:52
(UTC+00:00)

Lacrosse 5 - Pass Details

Date: 27 February 2020
Orbit: 715 x 724 km, 57.0° (Epoch: 21 March)

Event Time Altitude Azimuth Distance (km) Brightness Sun altitude
Rises 18:44:52 0° 224° (SW) 3,105 5.8 -16.0°
Reaches altitude 10° 18:47:13 10° 224° (SW) 2,188 4.9 -16.4°
Maximum altitude 18:52:16 84° 137° (SE) 723 1.8 -17.3°
Enters shadow 18:55:37 22° 50° (NE) 1,556 3.2 -17.9°
